Content
SEND FEEDBACK

Daily
Averages
Monthly
Summary
United States of America

EARTH CITY, MISSOURI


Home > North America > United States > Missouri
Elevation: 476 feet     Latitude: 38 46N     Longitude: 090 30W

WEATHER
 
SELECT A DAY
Number of Records: 205,815;   Date Range: 1/1/95 - 9/29/14
 
SHARE

PRINT THIS DATA

[ ← Previous Day ]
WEATHER ALMANAC - JUNE 14, 2013
[ Next Day → ]
[ °C ]   °F
Weather ElementAverageHighLow
Temperature75.3 °F84 °F (2:51 pm)64 °F (5:51 am)
Dewpoint56.7 °F59 °F (8:51 pm)55 °F (8:51 am)
Humidity53.9 %78 % (5:51 am)38 % (2:51 pm)
Barometer30.02 in30.08 in (9:51 am)29.94 in (4:51 pm)
Wind Speed5.9 mph17.3 mph (4:51 pm)
Weather ElementAverage
Visibility10 mi
Wind DirectionESE (97.4 °)

Weather ElementTotal
Precipitation---
Cooling Degree Days9 (Base 65)
Growing Degree Days24 (Base 50)
Averaged from 23 records on June 14, 2013
WEATHER CONDITIONS BREAKOUT
WIND DIRECTION BREAKOUT
WEATHER BY HOUR - JUNE 14, 2013
[ °C ]   °F
Local TimeTemperatureDewpointHumidityBarometerVisibilityWind DirectionWind SpeedGust SpeedPrecipitationEventsConditions
1:51 AM68.0 °F55.9 °F65 %29.99 in10.0 miCalmPartly Cloudy
2:51 AM68.0 °F55.9 °F65 %30.01 in10.0 miCalmClear
3:51 AM66.0 °F57.0 °F73 %30.00 in10.0 miCalmClear
4:51 AM64.9 °F57.0 °F75 %30.01 in10.0 miCalmMostly Cloudy
5:51 AM64.0 °F57.0 °F78 %30.04 in10.0 miEast (100°)4.6 mphMostly Cloudy
6:51 AM66.0 °F55.9 °F70 %30.05 in10.0 miESE (110°)9.2 mphMostly Cloudy
7:51 AM69.1 °F57.9 °F68 %30.06 in10.0 miESE (120°)9.2 mphMostly Cloudy
8:51 AM73.0 °F55.0 °F53 %30.07 in10.0 miESE (120°)11.5 mphMostly Cloudy
9:51 AM75.0 °F55.0 °F50 %30.08 in10.0 miESE (120°)9.2 mphPartly Cloudy
10:51 AM77.0 °F55.9 °F48 %30.06 in10.0 miESE (120°)8.1 mphScattered Clouds
11:51 AM80.1 °F55.9 °F43 %30.05 in10.0 miSSE (160°)4.6 mphMostly Cloudy
12:51 PM81.0 °F55.9 °F42 %30.05 in10.0 miVariable4.6 mphMostly Cloudy
1:51 PM81.0 °F55.0 °F41 %30.05 in10.0 miCalmMostly Cloudy
2:51 PM84.0 °F55.9 °F38 %30.07 in10.0 miWNW (290°)6.9 mphOvercast
3:51 PM82.0 °F57.9 °F44 %30.05 in10.0 miNNE (30°)11.5 mphMostly Cloudy
4:51 PM81.0 °F57.0 °F44 %29.94 in10.0 miSE (130°)17.3 mphMostly Cloudy
5:51 PM82.9 °F57.0 °F41 %29.97 in10.0 miSouth (170°)6.9 mphMostly Cloudy
6:51 PM81.0 °F55.9 °F42 %29.97 in10.0 miSE (140°)6.9 mphMostly Cloudy
7:51 PM79.0 °F57.0 °F47 %29.98 in10.0 miESE (110°)8.1 mphOvercast
8:51 PM77.0 °F59.0 °F54 %29.99 in10.0 miCalmOvercast
9:51 PM78.1 °F57.9 °F50 %29.99 in10.0 miSouth (170°)5.8 mphMostly Cloudy
10:51 PM77.0 °F59.0 °F54 %30.01 in10.0 miSouth (190°)3.5 mphScattered Clouds
11:51 PM75.9 °F57.9 °F54 %29.99 in10.0 miSSE (160°)8.1 mphScattered Clouds
Hourly data recorded from KSTL, located miles away from Earth City, Missouri







STORIES FROM OUR PARTNERS